Four Corners Regional Airport
KFMN : now visible

Airfield :











YOU CAN JOIN US ON...

 
LOGIN :

Register | Disclaimer

   EN    FR    IT 

 









Legend :    VFR   Marginal VFR   IFR   Intensive IFR   Very Intensive IFR
Visi :
Ceiling :
>= 8 km
>= 3000ft
5 to 8 km
1000 to 3000 ft
1500m to 5 km
500 to 1000 ft
800 to 1500m
200 to 500 ft
< 800m
< 200 ft
Symbols :   Thunderstorms  Fog  Heavy snow  Heavy precipitations  Wind > 20 kt






- Airport Elevation : 5506 ft


KFMN - Four Corners Regional

CURRENT METAR :
  • 101753Z VRB03KT 10SM CLR 16/M14 A2999 RMK AO2 SLP123 T01611139 10161 21039 58015

EXPIRED METARs :
  • 101653Z 11003KT 10SM CLR 12/M13 A3001 RMK AO2 SLP136 T01221133
  • 101553Z 10006KT 10SM CLR 08/M13 A3003 RMK AO2 SLP149 T00831128

TAF KFMN
Valid from the 10 at 18:00 until the 11 at 18:00 UTC


101749Z 1018/1118 10005KT P6SM SKC
FM102000 29010G20KT P6SM SKC
FM110300 04005KT P6SM SKC
KZDV FIR / North America



MET'MAP, your aeronautical weather chart ! - Copyright ORBIFLY December 2007 - Disclaimer

ORBIFLY MET'MAP TEAM :

Programming & Development : Alexandra Zaïnal
Concept & original design : Baudouin d'Aumeries
Assistance for programming : Marc-Olivier Méhu
Technical & hardware support : Manuel Goepfert

Contact : metmap@orbifly.com




SOURCES & CREDITS :

   NOAA       Earth
Advisory